GW1821 Weather Reports


time (UTC)temp
C
wind
direction
speed
KPH
gust
KPH
rain 1hr
cm
rain 24hr
cm
rain mn
cm
humidity
%
barometer
mb
20260502234031 18 263 6.4 20.9 0.00 0.00 0.00 39 1007.8
20260502233750 18 183 6.4 20.9 0.00 0.00 0.00 40 1007.9
20260502233022 18 277 6.4 22.5 0.00 0.00 0.00 38 1007.9
20260502232522 18 277 8.0 19.3 0.00 0.00 0.00 38 1007.9
20260502232020 18 211 9.7 29.0 0.00 0.00 0.00 39 1007.9
20260502231515 18 252 8.0 29.0 0.00 0.00 0.00 38 1008.1
20260502231014 18 271 4.8 12.9 0.00 0.00 0.00 37 1008.1
20260502230512 18 175 3.2 9.7 0.00 0.00 0.00 40 1008.0
20260502230007 18 157 1.6 8.0 0.00 0.00 0.00 40 1008.1
20260502225507 18 154 3.2 9.7 0.00 0.00 0.00 37 1008.1
20260502225004 18 154 3.2 11.3 0.00 0.00 0.00 37 1008.1
20260502224502 18 284 3.2 11.3 0.00 0.00 0.00 39 1008.3
20260502223959 18 248 3.2 9.7 0.00 0.00 0.00 36 1008.3
20260502223459 18 265 4.8 11.3 0.00 0.00 0.00 38 1008.4
20260502222949 18 266 6.4 12.9 0.00 0.00 0.00 37 1008.5
20260502222435 18 282 6.4 12.9 0.00 0.00 0.00 37 1008.5
20260502221934 18 245 4.8 11.3 0.00 0.00 0.00 38 1008.6
20260502221431 18 252 6.4 16.1 0.00 0.00 0.00 38 1008.6
20260502220928 18 265 8.0 17.7 0.00 0.00 0.00 37 1008.5
20260502220422 18 249 8.0 20.9 0.00 0.00 0.00 37 1008.6
20260502215922 18 252 11.3 20.9 0.00 0.00 0.00 36 1008.6
20260502215419 18 235 11.3 20.9 0.00 0.00 0.00 36 1008.7
20260502215410 18 258 11.3 20.9 0.00 0.00 0.00 36 1008.7
20260502214637 18 282 8.0 20.9 0.00 0.00 0.00 37 1008.8
20260502213917 18 242 8.0 19.3 0.00 0.00 0.00 37 1008.8
20260502213418 18 275 9.7 19.3 0.00 0.00 0.00 36 1008.9
20260502212914 18 263 11.3 22.5 0.00 0.00 0.00 36 1009.0
20260502212411 18 272 11.3 22.5 0.00 0.00 0.00 37 1009.1
20260502212359 18 195 11.3 29.0 0.00 0.00 0.00 36 1009.2
20260502211411 19 293 12.9 29.0 0.00 0.00 0.00 35 1009.2
20260502210912 19 295 9.7 24.1 0.00 0.00 0.00 37 1009.3
20260502210633 19 261 8.0 24.1 0.00 0.00 0.00 35 1009.4
20260502205911 20 232 8.0 20.9 0.00 0.00 0.00 36 1009.4
20260502205637 20 211 9.7 20.9 0.00 0.00 0.00 35 1009.6
20260502204907 19 300 9.7 22.5 0.00 0.00 0.00 37 1009.6
20260502204634 19 298 9.7 22.5 0.00 0.00 0.00 37 1009.8
20260502203904 19 182 9.7 29.0 0.00 0.00 0.00 35 1010.0
20260502203402 19 249 11.3 29.0 0.00 0.00 0.00 37 1010.1
20260502203120 19 246 12.9 30.6 0.00 0.00 0.00 36 1010.2
20260502202357 19 197 12.9 30.6 0.00 0.00 0.00 36 1010.3
20260502201855 19 172 9.7 27.4 0.00 0.00 0.00 35 1010.4
20260502201354 18 255 9.7 22.5 0.00 0.00 0.00 38 1010.5
20260502201116 18 255 11.3 22.5 0.00 0.00 0.00 37 1010.5
20260502200348 18 304 12.9 25.7 0.00 0.00 0.00 39 1010.7
20260502195848 18 253 9.7 25.7 0.00 0.00 0.00 36 1010.8
20260502195349 18 258 9.7 24.1 0.00 0.00 0.00 38 1010.9
20260502194840 18 225 8.0 22.5 0.00 0.00 0.00 38 1010.9
20260502194341 18 294 8.0 17.7 0.00 0.00 0.00 37 1011.0
20260502193836 17 275 9.7 22.5 0.00 0.00 0.00 36 1011.1
20260502193554 17 117 9.7 22.5 0.00 0.00 0.00 37 1011.2
20260502192836 17 191 9.7 20.9 0.00 0.00 0.00 36 1011.5
20260502192334 17 213 9.7 20.9 0.00 0.00 0.00 37 1011.5
20260502191835 17 200 9.7 22.5 0.00 0.00 0.00 37 1011.7
20260502191331 17 206 9.7 22.5 0.00 0.00 0.00 40 1011.7
20260502190835 16 292 11.3 22.5 0.00 0.00 0.00 37 1011.8
20260502190323 16 293 9.7 22.5 0.00 0.00 0.00 39 1012.0
20260502185821 16 237 9.7 22.5 0.00 0.00 0.00 39 1012.0
20260502185544 16 262 11.3 27.4 0.00 0.00 0.00 37 1012.2
20260502185050 16 291 9.7 27.4 0.00 0.00 0.00 38 1012.3
20260502184318 16 220 8.0 24.1 0.00 0.00 0.00 39 1012.2
20260502183818 16 204 9.7 17.7 0.00 0.00 0.00 39 1012.4
20260502183415 16 275 9.7 20.9 0.00 0.00 0.00 38 1012.5
20260502182315 16 196 9.7 22.5 0.00 0.00 0.00 38 1012.7
20260502182040 16 152 9.7 20.9 0.00 0.00 0.00 39 1012.7
20260502181316 16 140 9.7 25.7 0.00 0.00 0.00 39 1012.8
20260502181038 16 228 9.7 25.7 0.00 0.00 0.00 37 1012.9
20260502180313 16 171 8.0 20.9 0.00 0.00 0.00 37 1013.0
20260502170259 15 292 9.7 22.5 0.00 0.00 0.00 40 1014.0
20260502164247 14 241 8.0 22.5 0.00 0.00 0.00 42 1014.3
20260502164238 13 246 9.7 22.5 0.00 0.00 0.00 42 1014.3
20260502163248 13 272 12.9 25.7 0.00 0.00 0.00 41 1014.4
20260502163227 13 281 9.7 25.7 0.00 0.00 0.00 40 1014.4
20260502162239 13 270 8.0 20.9 0.00 0.00 0.00 43 1014.4
20260502161740 13 279 8.0 20.9 0.00 0.00 0.00 43 1014.6
20260502161240 13 215 8.0 17.7 0.00 0.00 0.00 41 1014.5
20260502160740 13 196 8.0 17.7 0.00 0.00 0.00 42 1014.8
20260502160240 13 274 6.4 25.7 0.00 0.00 0.00 43 1014.8
20260502152152 12 295 8.0 20.9 0.00 0.00 0.00 49 1015.1
20260502151645 12 276 6.4 17.7 0.00 0.00 0.00 47 1015.3
20260502151135 11 282 6.4 17.7 0.00 0.00 0.00 49 1015.3
20260502150853 11 294 8.0 17.7 0.00 0.00 0.00 49 1015.4
20260502150408 11 284 8.0 19.3 0.00 0.00 0.00 50 1015.4
20260502130500 6 253 3.2 11.3 0.00 0.00 0.00 69 1016.0
20260502130223 5 243 1.6 8.0 0.00 0.00 0.00 71 1016.0
20260502123705 3 264 3.2 9.7 0.00 0.00 0.00 80 1016.0
20260502122942 3 260 3.2 9.7 0.00 0.00 0.00 81 1015.9
20260502122441 2 261 4.8 9.7 0.00 0.00 0.00 82 1016.0
20260502121935 2 263 4.8 9.7 0.00 0.00 0.00 83 1016.0
20260502121432 2 263 3.2 9.7 0.00 0.00 0.00 84 1015.9
20260502120933 1 259 3.2 9.7 0.00 0.00 0.00 84 1015.9
20260502120423 1 259 3.2 8.0 0.00 0.00 0.00 85 1015.9
20260502115923 1 274 3.2 8.0 0.00 0.00 0.00 85 1015.9
20260502115413 0 257 3.2 9.7 0.00 0.00 0.00 86 1016.0
20260502115129 0 257 3.2 9.7 0.00 0.00 0.00 86 1016.0
20260502114624 0 254 1.6 6.4 0.00 0.00 0.00 85 1015.9
20260502113903 0 254 1.6 6.4 0.00 0.00 0.00 85 1015.9
20260502113358 0 254 1.6 6.4 0.00 0.00 0.00 85 1015.9
20260502112851 0 254 1.6 6.4 0.00 0.00 0.00 85 1015.9
20260502112550 0 254 0.0 3.2 0.00 0.00 0.00 85 1015.8
20260502111824 0 254 0.0 3.2 0.00 0.00 0.00 85 1015.8
20260502111309 0 254 0.0 3.2 0.00 0.00 0.00 85 1015.8
20260502110808 0 254 0.0 3.2 0.00 0.00 0.00 85 1015.7
20260502110302 0 254 0.0 1.6 0.00 0.00 0.00 85 1015.8
20260502105742 0 254 0.0 1.6 0.00 0.00 0.00 85 1015.7
20260502105244 0 254 0.0 1.6 0.00 0.00 0.00 85 1015.8
20260502104942 0 254 0.0 0.0 0.00 0.00 0.00 84 1015.7
20260502104201 0 254 0.0 0.0 0.00 0.00 0.00 84 1015.7
20260502103640 0 254 0.0 0.0 0.00 0.00 0.00 84 1015.7
20260502103134 0 254 0.0 0.0 0.00 0.00 0.00 84 1015.7
20260502102605 0 254 0.0 0.0 0.00 0.00 0.00 84 1015.7
20260502102102 0 254 0.0 0.0 0.00 0.00 0.00 84 1015.7
20260502101553 0 254 0.0 0.0 0.00 0.00 0.00 84 1015.7
20260502101035 0 254 0.0 0.0 0.00 0.00 0.00 84 1015.8
20260502100537 0 254 0.0 0.0 0.00 0.00 0.00 84 1015.7
20260502091356 0 254 0.0 0.0 0.00 0.00 0.00 82 1015.6
20260502091343 0 254 0.0 0.0 0.00 0.00 0.00 82 1015.5
20260502090558 0 254 0.0 0.0 0.00 0.00 0.00 81 1015.5
20260502071424 1 254 0.0 0.0 0.00 0.00 0.00 76 1015.7
20260502071139 1 254 0.0 0.0 0.00 0.00 0.00 76 1015.7
20260502070417 1 254 0.0 0.0 0.00 0.00 0.00 76 1015.8
20260502065910 1 254 0.0 0.0 0.00 0.00 0.00 76 1015.8
20260502065406 2 254 0.0 0.0 0.00 0.00 0.00 75 1015.8
20260502064901 2 254 0.0 0.0 0.00 0.00 0.00 75 1015.8
20260502064359 2 254 0.0 0.0 0.00 0.00 0.00 75 1015.8
20260502063830 2 254 0.0 0.0 0.00 0.00 0.00 75 1015.9
20260502063316 2 254 0.0 0.0 0.00 0.00 0.00 75 1015.9
20260502062814 2 254 0.0 0.0 0.00 0.00 0.00 74 1015.9
20260502062311 2 254 0.0 0.0 0.00 0.00 0.00 74 1015.9
20260502062027 2 254 0.0 0.0 0.00 0.00 0.00 74 1015.9
20260502061749 2 254 0.0 0.0 0.00 0.00 0.00 73 1015.9
20260502060751 3 254 0.0 0.0 0.00 0.00 0.00 73 1015.9
20260502060242 3 254 0.0 0.0 0.00 0.00 0.00 74 1015.9
20260502055951 3 254 0.0 0.0 0.00 0.00 0.00 74 1015.9
20260502055214 3 254 0.0 0.0 0.00 0.00 0.00 75 1015.9
20260502054934 3 254 0.0 0.0 0.00 0.00 0.00 75 1015.9
20260502054204 3 254 0.0 0.0 0.00 0.00 0.00 74 1016.0
20260502053700 3 254 0.0 0.0 0.00 0.00 0.00 74 1016.0
20260502053148 3 254 0.0 0.0 0.00 0.00 0.00 73 1016.0
20260502052642 3 254 0.0 0.0 0.00 0.00 0.00 72 1016.0
20260502052139 3 254 0.0 0.0 0.00 0.00 0.00 72 1016.0
20260502051633 3 254 0.0 0.0 0.00 0.00 0.00 71 1016.0
20260502051131 3 254 0.0 1.6 0.00 0.00 0.00 71 1016.0
20260502050619 3 254 0.0 1.6 0.00 0.00 0.00 71 1016.0
20260502045533 3 254 0.0 0.0 0.00 0.00 0.00 71 1016.0
20260502045037 3 254 0.0 0.0 0.00 0.00 0.00 70 1016.0
20260502044537 3 254 0.0 0.0 0.00 0.00 0.00 70 1016.0
20260502044027 3 254 0.0 0.0 0.00 0.00 0.00 69 1015.9
20260502043516 3 254 0.0 0.0 0.00 0.00 0.00 69 1016.0
20260502043018 3 254 0.0 0.0 0.00 0.00 0.00 69 1016.0
20260502042512 4 254 0.0 0.0 0.00 0.00 0.00 68 1016.0
20260502042235 4 254 0.0 0.0 0.00 0.00 0.00 68 1015.9
20260502041510 4 254 0.0 0.0 0.00 0.00 0.00 67 1016.0
20260502041232 4 254 0.0 0.0 0.00 0.00 0.00 66 1015.9
20260502040729 5 254 0.0 0.0 0.00 0.00 0.00 66 1016.0
20260502040006 5 254 0.0 0.0 0.00 0.00 0.00 66 1016.0
20260502035502 5 254 0.0 0.0 0.00 0.00 0.00 65 1016.0
20260502034959 5 254 0.0 0.0 0.00 0.00 0.00 65 1016.0
20260502034456 5 254 0.0 0.0 0.00 0.00 0.00 64 1016.0
20260502033920 5 254 0.0 0.0 0.00 0.00 0.00 64 1016.0
20260502033623 5 254 0.0 0.0 0.00 0.00 0.00 63 1016.0
20260502032848 5 254 0.0 0.0 0.00 0.00 0.00 62 1016.0
20260502032341 5 254 0.0 0.0 0.00 0.00 0.00 62 1016.0
20260502031833 6 254 0.0 0.0 0.00 0.00 0.00 60 1016.0
20260502031327 6 254 0.0 0.0 0.00 0.00 0.00 60 1016.0
20260502030823 6 254 0.0 0.0 0.00 0.00 0.00 58 1016.0
20260502030306 6 254 0.0 0.0 0.00 0.00 0.00 57 1016.0
20260502030011 6 254 0.0 0.0 0.00 0.00 0.00 57 1016.0
20260502025246 6 254 0.0 0.0 0.00 0.00 0.00 57 1016.0
20260502024736 6 254 0.0 0.0 0.00 0.00 0.00 57 1016.0
20260502024451 6 254 0.0 0.0 0.00 0.00 0.00 56 1016.1
20260502023726 7 254 0.0 0.0 0.00 0.00 0.00 56 1016.0
20260502023210 7 254 0.0 0.0 0.00 0.00 0.00 54 1016.0
20260502022707 7 254 0.0 1.6 0.00 0.00 0.00 53 1016.0
20260502022150 7 254 0.0 1.6 0.00 0.00 0.00 51 1015.9
20260502022125 7 254 0.0 0.0 0.00 0.00 0.00 50 1015.9
20260502021143 8 254 0.0 0.0 0.00 0.00 0.00 51 1015.8
20260502020643 8 254 0.0 0.0 0.00 0.00 0.00 50 1015.8
20260502020359 8 254 0.0 0.0 0.00 0.00 0.00 48 1015.7
20260502015616 9 254 0.0 0.0 0.00 0.00 0.00 46 1015.7
20260502015038 9 254 0.0 0.0 0.00 0.00 0.00 45 1015.6
20260502014522 10 254 0.0 0.0 0.00 0.00 0.00 45 1015.5
20260502014002 10 254 0.0 1.6 0.00 0.00 0.00 45 1015.5
20260502013459 10 254 0.0 4.8 0.00 0.00 0.00 44 1015.4
20260502012954 10 254 0.0 4.8 0.00 0.00 0.00 42 1015.4
20260502012716 10 254 1.6 4.8 0.00 0.00 0.00 40 1015.4
20260502011950 11 254 1.6 4.8 0.00 0.00 0.00 39 1015.4
20260502011444 11 254 1.6 6.4 0.00 0.00 0.00 38 1015.4
20260502010945 11 254 1.6 6.4 0.00 0.00 0.00 38 1015.4
20260502010440 11 246 3.2 8.0 0.00 0.00 0.00 37 1015.3
20260502005939 11 313 3.2 9.7 0.00 0.00 0.00 36 1015.4
20260502005422 11 321 3.2 9.7 0.00 0.00 0.00 36 1015.3
20260502004921 11 345 3.2 8.0 0.00 0.00 0.00 36 1015.3
20260502004644 11 355 3.2 9.7 0.00 0.00 0.00 37 1015.3
20260502003912 11 307 3.2 9.7 0.00 0.00 0.00 35 1015.1
20260502003413 11 321 3.2 9.7 0.00 0.00 0.00 35 1015.3
20260502002912 11 317 3.2 8.0 0.00 0.00 0.00 36 1015.3
20260502002636 11 328 3.2 12.9 0.00 0.00 0.00 35 1015.3
20260502002132 11 310 4.8 12.9 0.00 0.00 0.00 35 1015.4
20260502001404 11 303 3.2 11.3 0.00 0.00 0.00 35 1015.3
20260502001128 11 283 3.2 11.3 0.00 0.00 0.00 36 1015.3
20260502000402 12 296 3.2 9.7 0.00 0.00 0.00 35 1015.4
20260501235900 12 318 3.2 12.9 0.00 0.00 0.00 35 1015.3
20260501235355 12 263 4.8 14.5 0.00 0.00 0.00 35 1015.3
20260501234853 12 310 3.2 14.5 0.00 0.00 0.00 34 1015.3
20260501234351 12 292 4.8 14.5 0.00 0.00 0.00 35 1015.4